Pagrindinis puslapis
METAR-TAF:

METAR-TAF

Oro uostai :

Coleman, Teksasas, Jungtinės Amerikos Valstijos

platuma: 31-50-28N, ilguma: 099-24-12W, Aukštis: 517 m

Dabartinis oras

Ataskaita buvo paskelbta 12 minutes, ne 04:55 UTC
Vėjas 3 kt iš Pietų/Pietvakarių
Temperatūra 28°C
Drėgmė 42%
Slėgis 1015 hPa
Matomumas: 16.1 km
Giedras dangus

METAR: KCOM 160455Z AUTO 20003KT 10SM CLR 28/14 A2998 RMK AO2 T02780142

Laikas: 23:07 (05:07 UTC)


TAF: trūkstamas

Orai ataskaitas ir orų prognozės (METAR, TAF).

turimą stotys yra geltonos ir raudonos taškus žemėlapyje.

Perkelti pele per norėdami pamatyti stoties vardą.

Tada spustelėkite, norėdami matyti oro stebėjimo ir prognozės.

Norėdami pakeisti žemėlapį: spustelėkite ant žalios mygtukų su juodo kryžiaus žemyn,; žalią mygtuką su brūkšneliu, jei norite nutolinti; arba žalių rodyklių gretimoms žemėlapius.


METAR-TAF: